Scottsbluff, NE

2:40 PM MDT on September 18, 2019 (GMT -0600)
Heilig

Weather History for KBFF - July, 2019

Change the Weather History Date:

Friday, July 19, 2019

  Actual Average Record
Temperature  
Mean Temperature 77 °F -  
Max Temperature 97 °F 87 °F 105 °F (1936)
Min Temperature 57 °F 58 °F 44 °F (1897)
Cooling Degree Days 12    
Growing Degree Days 27 (Base 50)    
Moisture  
Dew Point 58 °F    
Average Humidity 53    
Maximum Humidity 87    
Minimum Humidity 17    
Precipitation  
Precipitation 0.00 in - - ()
Sea Level Pressure  
Sea Level Pressure 29.66 in    
Wind  
Wind Speed 5 mph (East)    
Max Wind Speed 15 mph    
Max Gust Speed -    
Visibility 10 miles    
Events      
Averages and records for this station are not official NWS values.
T = Trace of Precipitation, MM = Missing Value Source: NWS Daily Summary

Daily Weather History Graph

Daily Weather History Graph

Search for Another Location

Airport or City:

Astronomy

Jul. 19, 2019 Rise Set
Actual Time 5:35 AM MDT 8:25 PM MDT
Civil Twilight 5:02 AM MDT 8:57 PM MDT
Nautical Twilight 4:21 AM MDT 9:39 PM MDT
Astronomical Twilight 3:33 AM MDT 10:26 PM MDT
Moon 10:22 PM MDT (7/19) 8:05 AM MDT (7/19)
Length of Visible Light 15h 54m
Length of Day
14h 49m
Waning Gibbous, 93% of the Moon is Illuminated
Jul 19
Waning Gibbous
Jul 24
Last Quarter
Jul 31
New
Aug 7
First Quarter
Aug 15
Full

Hourly Weather History & Observations

Time (MDT) Temp. Heat Index Dew Point Humidity Pressure Visibility Wind Dir Wind Speed Gust Speed Precip Events Conditions
12:53 AM 68.0 °F - 55.9 °F 65% 29.63 in 10.0 mi Calm Calm - N/A   Clear
1:53 AM 64.9 °F - 55.0 °F 70% 29.63 in 10.0 mi Calm Calm - N/A   Clear
2:53 AM 63.0 °F - 55.9 °F 78% 29.64 in 10.0 mi Calm Calm - N/A   Clear
3:53 AM 59.0 °F - 55.0 °F 87% 29.64 in 10.0 mi Calm Calm - N/A   Clear
4:53 AM 59.0 °F - 53.1 °F 81% 29.65 in 10.0 mi North 3.5 mph - N/A   Clear
5:53 AM 57.9 °F - 52.0 °F 81% 29.68 in 10.0 mi North 3.5 mph - N/A   Clear
6:53 AM 62.1 °F - 55.0 °F 78% 29.69 in 10.0 mi WNW 3.5 mph - N/A   Clear
7:53 AM 70.0 °F - 55.9 °F 61% 29.69 in 10.0 mi NW 4.6 mph - N/A   Clear
8:53 AM 78.1 °F - 55.0 °F 45% 29.70 in 10.0 mi NW 9.2 mph - N/A   Clear
9:53 AM 84.0 °F 82.5 °F 53.1 °F 34% 29.70 in 10.0 mi Variable 4.6 mph - N/A   Clear
10:53 AM 87.1 °F 84.9 °F 53.1 °F 31% 29.71 in 10.0 mi North 6.9 mph - N/A   Clear
11:53 AM 93.0 °F 90.8 °F 54.0 °F 27% 29.71 in 10.0 mi Variable 5.8 mph - N/A   Clear
12:53 PM 93.9 °F 93.2 °F 59.0 °F 31% 29.69 in 10.0 mi ESE 9.2 mph - N/A   Clear
1:53 PM 93.0 °F 93.8 °F 62.1 °F 36% 29.68 in 10.0 mi ESE 13.8 mph - N/A   Clear
2:53 PM 96.1 °F 95.6 °F 59.0 °F 29% 29.67 in 10.0 mi ESE 15.0 mph - N/A   Clear
3:53 PM 97.0 °F 94.6 °F 54.0 °F 23% 29.66 in 10.0 mi ESE 13.8 mph - N/A   Clear
4:53 PM 96.1 °F 94.8 °F 57.0 °F 27% 29.65 in 10.0 mi East 12.7 mph - N/A   Clear
5:53 PM 93.0 °F 94.2 °F 63.0 °F 37% 29.64 in 10.0 mi East 10.4 mph - N/A   Clear
6:53 PM 91.0 °F 91.9 °F 63.0 °F 39% 29.64 in 10.0 mi East 8.1 mph - N/A   Clear
7:53 PM 84.9 °F 85.0 °F 61.0 °F 44% 29.64 in 10.0 mi East 9.2 mph - N/A   Clear
8:53 PM 82.9 °F 84.0 °F 63.0 °F 51% 29.63 in 10.0 mi SE 12.7 mph - N/A   Clear
9:53 PM 77.0 °F - 64.9 °F 66% 29.65 in 10.0 mi East 3.5 mph - N/A   Clear
10:53 PM 73.0 °F - 66.0 °F 79% 29.65 in 10.0 mi ESE 5.8 mph - N/A   Clear
11:53 PM 73.0 °F - 66.9 °F 81% 29.65 in 10.0 mi SE 5.8 mph - N/A   Clear